Вернуться в каталог

KUIPER-00020

АктивенСвязьLEO
NORAD 63735·PAYLOAD·🇺🇸 United States

Запущен Apr 28, 2025 с Cape Canaveral Space Force Station

Loading…

Ближайшие Пролёты (ближайшие 24 часа)

TLE

СвежийSource: CelesTrak SupGP

Эпоха: Sep 14, 2026, 22:04 UTC

1 63735C 25088M   26257.91987269 -.00001356  00000+0 -17757-3 0  2573
2 63735  51.9022 346.3375 0000408  90.5135 170.4924 14.79930450    11

Отслеживайте KUIPER-00020 в реальном времени с AllMySat

Download on the App Store